#timestamp,LO_Frequency,Hit,StdDev 
1559228415.0,286046998.2,N
1559228415.9,286046998.2,N
1559228435.8,286046998.2,N
1559228455.6,286046998.6,N
1559228475.5,286046995.0,N
1559228495.3,286046990.6,Y
1559228515.1,286046989.1,P
1559228535.9,286046986.2,N
1559228555.7,286046985.4,N
1559228575.5,286046985.3,N
1559228595.4,286046985.3,N
1559228615.2,286046985.8,N
1559228635.1,286046980.7,Y
1559228636.0,286046980.7,P
1559228655.8,286046992.5,N
1559228675.6,286046993.5,N
1559228695.5,286046998.5,N
1559228715.3,286047005.4,N
1559228735.2,286047004.1,N
1559228755.9,286047001.3,N
1559228775.7,286047003.7,N
1559228795.6,286047005.7,N
1559228815.4,286047005.9,N
1559228835.3,286047003.3,N
1559228855.1,286047002.9,N
1559228856.0,286047002.9,N
1559228875.8,286047004.0,N
1559228895.7,286047004.0,N
1559228915.5,286047000.0,N
1559228935.3,286046997.6,N
1559228955.2,286046998.0,N
1559228975.0,286046997.6,N
1559228975.9,286046997.6,N
1559228995.8,286046999.2,N
1559229015.6,286046997.5,N
1559229035.4,286046999.4,N
1559229055.3,286047000.0,N
1559229075.1,286046998.4,N
1559229095.8,286046999.2,N
1559229115.7,286046997.7,N
1559229135.5,286046999.5,N
1559229155.4,286047001.0,N
1559229175.2,286047000.8,N
1559229195.0,286047002.1,N
1559229195.9,286047002.1,N
1559229215.8,286047003.0,N
1559229235.6,286047005.1,N
1559229255.5,286047008.3,Y
1559229275.3,286047010.1,P
1559229295.1,286047011.7,N
1559229315.9,286047014.7,P
1559229335.7,286047015.2,Y
1559229355.5,286047003.5,P
1559229375.4,286047000.1,N
1559229395.2,286046998.1,N
1559229415.1,286046999.6,N
1559229416.0,286046999.6,N
1559229435.8,286046997.8,N
1559229455.6,286046995.1,N
1559229475.5,286046995.8,N
1559229495.3,286046993.5,N
1559229515.1,286046992.6,N
1559229535.9,286046994.3,N
1559229555.7,286046992.1,N
1559229575.6,286046993.3,N
1559229595.4,286046995.3,N
1559229615.2,286046996.5,N
1559229635.1,286046995.1,N
1559229636.0,286046995.1,N
1559229655.8,286046993.7,N
1559229675.7,286046990.7,N
1559229695.5,286046988.6,N
1559229715.3,286046988.5,N
1559229735.2,286046988.9,N
1559229755.9,286046990.6,N
1559229775.7,286046992.6,N
1559229795.6,286046990.1,N
1559229815.4,286046993.7,N
1559229835.3,286046993.2,N
1559229855.1,286046991.0,N
1559229856.0,286046991.0,N
1559229875.8,286046989.6,N
1559229895.7,286046988.1,Y
1559229915.5,286046990.5,P
1559229935.3,286046991.1,P
1559229955.2,286046990.2,P
1559229975.0,286046987.4,Y
1559229975.9,286046987.4,P
1559229995.8,286046993.6,P
1559230015.6,286046996.1,N
1559230035.4,286046999.4,N
1559230055.3,286047000.4,N
1559230075.1,286047003.5,N
1559230095.9,286047004.9,N
1559230115.7,286047005.2,N
1559230135.5,286047005.1,N
1559230155.4,286047005.9,N
1559230175.2,286047005.4,N
1559230195.0,286047003.5,N
1559230195.9,286047003.5,N
1559230215.8,286046999.7,N
1559230235.6,286046999.9,N
1559230255.5,286047000.5,N
1559230275.3,286047000.8,N
1559230295.1,286047000.0,N
1559230315.9,286046999.8,N
1559230335.7,286047001.9,N
1559230355.5,286047003.7,N
1559230375.4,286047003.3,N
1559230395.2,286047005.6,N
1559230415.1,286047006.7,N
1559230416.0,286047006.7,N
1559230435.8,286047006.2,N
1559230455.6,286047009.0,N
1559230475.5,286047006.9,N
1559230495.3,286047007.3,N
1559230515.2,286047006.2,N
1559230535.9,286047007.3,N
1559230555.7,286047008.6,N
1559230575.6,286047012.0,Y
1559230595.4,286047008.4,P
1559230615.2,286047006.1,N
1559230635.1,286047009.2,P
1559230636.0,286047009.2,Y
1559230655.8,286046998.4,P
1559230675.7,286046999.5,N
1559230695.5,286046997.2,N
1559230715.3,286046998.7,N
1559230735.2,286046997.8,N
1559230755.0,286046995.9,N
1559230755.9,286046995.9,N
1559230775.8,286046995.6,N
1559230795.6,286046996.6,N
1559230815.4,286046999.8,N
1559230835.3,286046999.9,N
1559230855.1,286046999.8,N
1559230875.8,286047000.6,N
1559230895.7,286047000.6,N
1559230915.5,286046999.9,N
1559230935.4,286046999.4,N
1559230955.2,286046994.9,N
1559230975.0,286046996.2,N
1559230975.9,286046996.2,N
1559230995.8,286046995.8,N
1559231015.6,286046993.8,N
1559231035.5,286046999.0,N
1559231055.3,286046995.5,N
1559231075.1,286046996.4,N
1559231095.9,286046995.3,N
1559231115.7,286046999.1,N
1559231135.5,286046996.8,N
1559231155.4,286046995.0,N
1559231175.2,286046995.3,N
1559231195.1,286046996.7,N
1559231196.0,286046996.7,N
1559231215.8,286046999.1,N
1559231235.6,286046997.3,N
1559231255.5,286046995.5,N
1559231275.3,286046997.9,N
1559231295.2,286046997.4,N
1559231315.9,286046997.5,N
1559231335.7,286046997.0,N
1559231355.6,286046998.0,N
1559231375.4,286046996.2,N
1559231395.2,286046998.3,N
1559231415.1,286047000.1,N
1559231416.0,286047000.1,N
1559231435.8,286047000.8,N
1559231455.7,286047000.0,N
1559231475.5,286047001.0,N
1559231495.3,286046999.0,N
1559231515.2,286046998.4,N
1559231535.0,286047000.3,N
1559231535.9,286047000.3,N
1559231555.8,286047000.2,N
1559231575.6,286047001.6,N
1559231595.4,286047002.9,N
1559231615.3,286047007.4,Y
1559231635.1,286047008.2,P
1559231655.9,286047010.5,N
1559231675.7,286047009.1,N
1559231695.5,286047009.6,N
1559231715.4,286047009.4,N
1559231735.2,286047008.3,N
1559231755.0,286047009.2,N
1559231755.9,286047009.2,N
1559231775.8,286047008.7,N
1559231795.6,286047010.3,Y
1559231815.5,286047001.4,P
1559231835.3,286047003.9,N
1559231855.1,286047003.2,N
1559231875.9,286047005.6,N
1559231895.4,286047005.7,N
1559231915.2,286047005.3,N
1559231935.1,286047007.1,Y
1559231936.0,286047007.1,P
1559231955.8,286047002.0,N
1559231975.7,286047005.2,N
1559231995.5,286047001.4,N
